ELECTRON R/B (54025 NORAD) Tracking and Keplerian Element Data

This shows tracking and keplerian element data for the satellite.

Feedback or suggestion? Click here.




ElementValue
Catalog54025
NameELECTRON R/B
Epoch Orbit414
Epoch Day308.03761869
Epoch Year2022
RAAN310.2294
Inclination98.3323
Eccentricity0.033034
Argument of Perigee124.9553
Mean Anonmoly238.3182
Mean Motion15.22169421
Decay Rate0.00218524
L11 54025U 22127C 22308.03761869 .00218524 11936-4 19223-2 0 9990
L22 54025 98.3323 310.2294 0330340 124.9553 238.3182 15.22169421 4148



Live tracking and technical data element details for ELECTRON R/B (NORAD 54025). ELECTRON R/B can be tracked NOW for your location showing map with azimuth and elevation plus other details from your city location.







IsCatalogInMostPopularTable: catalog: 54025, numindb: 7
Update: records affected: 1



GetName: 54025 ELECTRON R/B

Hit Count: updated at: Sun, 28 May 2023 20:08:28 GMT